LUCH 5V

Last updated on Mon Jun 22 2026 00:02:54 GMT+0000 (Coordinated Universal Time)

1 39727U 14023A 26172.17197378 -.00000273 00000+0 00000+0 0 9990 2 39727 5.1436 69.7087 0001946 48.4046 307.9045 1.00273075 44395
UTC large
Height (km)
Speed (km/s)
/
Latitude / Longitude
Inclination (degrees)
Orbital Period (minutes)
Azimuth
Elevation
Range (km)
Doppler Factor

Next 0 passes for location: London (51.5072 / 0.1276)

No passes found over London.
LUCH 5V